www.pogodaiklimat.ru

Погода и климат >> Архив погоды >> Буркина-Фасо >> Boromo


ПОГОДА в Boromo

  • Прогноз погоды в Boromo
  • Монитор погоды в Boromo
  • Климат города

АРХИВ ПОГОДЫ в Boromo

Время (UTC), дата Ветер
(напр.,м/с)
 
Видим.   Явления Облачность Т
(С)
Тd
(С)
f
(%)
Тe
(С)
Тes
(С)
Комфортность P
(гПа)
Po
(гПа)
Тmin
(С)
Tmax
(С)
R
(мм)
R24
(мм)
S
(см)
18 19.04 штиль 0 10 км 9/3 600 м
[Cb cap Ac trans Ci sp]
+38.9 +17.2 28 +41 +42 опасность
перегрева
1006.1 976.7 +40.5
21 19.04 штиль 0 10 км 9/0
[Ac trans Ci sp]
+34.4 +17.4 36 +38 +38 очень
душно
1007.6 978.0
00 20.04 Ю 2 10 км 9/0
[Ac trans Ci sp]
+33.3 +19.2 43 +38 +38 очень
душно
1007.8 978.4
03 20.04 ЮЗ 2 10 км 9/0
[Ac As Cs]
+31.6 +21.9 56 +40 +40 очень
душно
1006.9 977.5
06 20.04 штиль 0 10 км 9/0
[Ac trans Ci sp]
+29.8 +22.3 64 +39 +39 очень
душно
1007.4 977.9 +29.8
09 20.04 ЮЗ 3 10 км 9/0
[Ac cast Ci sp]
+32.6 +22.6 56 +42 +49 опасность
перегрева
1009.3 979.6
12 20.04 СЗ 1 10 км 9/4 600 м
[Cu Sc Ci sp]
+37.8 +22.6 42 +47 +60 опасность
перегрева
1007.8 978.4
15 20.04 Ю 2 10 км 9/3 600 м
[Cb cap Ac trans Ci sp]
+40.0 +17.4 27 +43 +48 опасность
перегрева
1004.3 975.0
18 20.04 штиль 0 10 км 9/0
[Ac cast Ci sp]
+38.2 +18.7 32 +42 +42 опасность
перегрева
1004.7 975.2 +40.5
21 20.04 штиль 0 10 км 9/0
[Ac As Ci sp]
+34.0 +19.1 42 +39 +39 очень
душно
1006.3 976.7
00 21.04 ЮЗ 1 10 км 9/0
[Ci sp]
+31.8 +19.4 48 +38 +38 очень
душно
1007.0 977.5
03 21.04 ЮЗ 2 10 км 9/0
[Ci sp]
+30.2 +20.3 55 +37 +37 очень
душно
1006.3 976.9
06 21.04 ЮЗ 1 10 км 9/0
[Ci sp]
+28.6 +21.1 64 +36 +36 очень
душно
1006.7 977.1 +28.4
09 21.04 СЗ 1 10 км 9/0
[Ci sp]
+31.0 +20.4 53 +38 +48 очень
душно
1009.4 979.7
12 21.04 С 1 10 км 9/0
[Cs]
+38.1 +17.9 31 +42 +63 опасность
перегрева
1007.3 977.9
15 21.04 Ю 2 10 км 9/1 600 м
[Sc Ac trans Ci sp]
+41.5 +12.4 18 +41 +47 опасность
перегрева
1003.9 974.6
18 21.04 Ю 2 10 км 9/1 600 м
[Cu Sc Ac As Ci sp]
+39.4 +14.5 23 +40 +40 очень
душно
1004.5 975.0 +42.1
21 21.04 Ю 3 10 км 9/1 600 м
[Sc Ac As Ci sp]
+35.5 +17.5 35 +39 +39 очень
душно
1007.2 977.6
00 22.04 штиль 0 10 км 9/0
[Ac As Ci sp]
+32.8 +17.4 40 +37 +37 очень
душно
1007.9 978.5
03 22.04 Ю 2 10 км 9/0
[Ac As Ci sp]
+31.4 +18.8 47 +36 +36 очень
душно
1006.7 977.4
06 22.04 ЮЗ 2 15 км 9/0
[Ci sp]
+29.8 +18.9 52 +35 +35 очень
душно
1007.5 978.0 +29.6
09 22.04 ЮЗ 3 15 км 9/0
[Ci sp]
+33.6 +18.6 41 +38 +45 очень
душно
1008.7 979.2
12 22.04 ЮЗ 2 15 км 9/1 600 м
[Sc Ci sp]
+39.1 +18.6 30 +43 +59 опасность
перегрева
1007.5 978.1
15 22.04 СВ 3 15 км 9/3 600 м
[Cu Sc Ci sp]
+41.4 +13.2 19 +41 +47 опасность
перегрева
1004.6 975.4
18 22.04 штиль 0 10 км в посл. час дождь 9/1 600 м
[Cu Sc Ac trans Ci sp]
+34.2 +19.6 42 +40 +40 очень
душно
1005.4 975.8 +42.3 2
21 22.04 Ю 1 10 км 9/0
[Ci sp]
+32.1 +22.7 58 +42 +42 опасность
перегрева
1007.0 977.4
00 23.04 штиль 0 10 км 9/0
[Ci sp]
+30.0 +18.6 50 +35 +35 очень
душно
1007.4 977.9
03 23.04 ЮЗ 1 10 км 9/0
[Ci sp]
+29.8 +16.9 46 +33 +33 душно 1006.7 977.3
06 23.04 ЮЗ 1 10 км 9/0
[Ci sp]
+28.8 +19.5 57 +35 +35 очень
душно
1008.2 978.4 +28.5 2
09 23.04 ЮЗ 2 10 км 9/0
[Ci sp]
+32.8 +19.2 45 +38 +47 очень
душно
1009.4 979.7
12 23.04 ЮЗ 2 14 км 9/0
[Ci sp]
+37.6 +18.4 33 +42 +60 опасность
перегрева
1008.3 978.7
15 23.04 СВ 3 15 км 9/4 600 м
[Cu Sc Ci sp]
+40.4 +14.2 21 +41 +46 опасность
перегрева
1004.7 975.3
18 23.04 штиль 0 10 км 9/1 600 м
[Cb cap Ac trans Ci sp]
+39.4 +15.2 24 +40 +41 очень
душно
1005.3 975.8 +41.2
21 23.04 штиль 0 10 км 9/0
[Ac trans Ci sp]
+34.3 +16.0 34 +37 +37 очень
душно
1006.6 977.0
00 24.04 штиль 0 10 км 9/0
[Ci sp]
+32.2 +17.7 42 +36 +36 очень
душно
1007.0 977.5
03 24.04 ЮЗ 3 10 км 9/0
[Ac trans Ci sp]
+32.0 +19.7 48 +38 +38 очень
душно
1006.4 977.1
06 24.04 ЮЗ 2 10 км 9/0
[Ci sp]
+30.2 +21.1 58 +38 +38 очень
душно
1008.3 978.8 +30.0
09 24.04 ЮЗ 3 10 км 9/0
[Ci sp]
+33.0 +21.8 52 +41 +48 опасность
перегрева
1010.0 980.3
12 24.04 ЮЗ 3 10 км 9/1 600 м
[Sc Ci sp]
+38.2 +20.8 37 +45 +58 опасность
перегрева
1008.2 978.7
15 24.04 ЮЗ 3 10 км 9/3 600 м
[Cu Sc Ci sp]
+42.2 +13.9 19 +42 +48 опасность
перегрева
1004.5 975.3
18 24.04 штиль 0 10 км 9/1 600 м
[Sc Ci sp]
+40.4 +14.9 22 +41 +41 опасность
перегрева
1004.3 975.0 +42.9
21 24.04 штиль 0 10 км 9/0
[Ac trans Ci sp]
+35.2 +16.2 32 +37 +37 очень
душно
1006.6 977.0
00 25.04 З 2 10 км 9/0
[Ac trans Ci sp]
+32.5 +17.0 40 +36 +36 очень
душно
1006.2 976.9
03 25.04 Ю 2 10 км 9/0
[Ci sp]
+32.3 +21.9 54 +41 +41 опасность
перегрева
1005.4 976.2
06 25.04 ЮЗ 3 10 км 9/0
[Ci sp]
+30.6 +21.8 59 +39 +39 очень
душно
1007.1 977.7 +30.6
09 25.04 ЮЗ 3 10 км 9/1 600 м
[Sc Ci sp]
+33.2 +21.8 51 +41 +48 опасность
перегрева
1009.5 979.8
12 25.04 Ю 2 10 км 9/1 600 м
[Sc Ci sp]
+38.3 +21.4 38 +46 +62 опасность
перегрева
1007.6 978.2
15 25.04 ЮЗ 2 10 км 9/1 600 м
[Cu Sc Ci sp]
+40.6 +18.9 29 +45 +54 опасность
перегрева
1004.3 975.1
18 25.04 штиль 0 10 км 9/1 600 м
[Cb cap Ci sp]
+41.0 +16.6 24 +43 +43 опасность
перегрева
1003.1 973.8 +42.2
21 25.04 ЮЗ 3 10 км гроза без осадков 9/1 600 м
[Cb cap Ac As Ci sp]
+32.8 +19.4 45 +38 +38 очень
душно
1008.0 978.3
00 26.04 ЮЗ 3 10 км зарница 10/1 600 м
[Cb cap Ac As]
+30.0 +17.2 46 +34 +34 очень
душно
1008.0 978.4
03 26.04 Ю 2 10 км зарница 9/1 1200 м
[Cb cap Ac As]
+28.9 +18.0 52 +34 +34 очень
душно
1008.7 979.2
06 26.04 штиль 0 10 км 9/0
[Ac As Ci sp]
+28.8 +18.1 52 +33 +33 очень
душно
1008.8 979.3 +28.0
09 26.04 З 3 10 км 9/0
[Ac As Cs]
+30.5 +18.4 48 +35 +42 очень
душно
1008.2 978.4
12 26.04 Ю 1 10 км 9/0
[Ac As Cs]
+36.0 +18.2 35 +40 +60 опасность
солнечного
удара
1008.4 978.7
15 26.04 З 1 10 км 9/0
[Ac cast Ci sp]
+39.0 +18.2 30 +43 +54 опасность
перегрева
1005.6 976.1

 

Местоположение метеостанции Boromo (Буркина-Фасо): широта 11.75 долгота -2.93 высота над уровнем моря 271 м.

В архиве по умолчанию представлена погода в Boromo за последнюю неделю. Архивные данные за месяц целиком и за предыдущие месяцы, начиная с января 2011 года, Вы можете получить, выбрав интересующий диапазон дат из раскрывающегося списка и нажав кнопку "Ввод!".


*Определитесь, кто Вы:
робот инопланетянин человек

Внимание! Время в таблицах - всемирное. Для получения местного времени необходимо прибавить поправку, которая в Boromo равна 0 ч.

Смотрите также архив погоды в соседних городах и на ближайших метеорологических станциях:

Погода в Dedougou (Буркина-Фасо) (100 км)
Погода в Gaoua (Буркина-Фасо) (160 км)
Погода в Bobo-Dioulasso (Буркина-Фасо) (165 км)
Погода в Ouagadougou (Буркина-Фасо) (167 км)
Погода в Wa (Гана) (195 км)
Погода в Po (Буркина-Фасо) (205 км)
Погода в Ouahigouya (Буркина-Фасо) (210 км)
Погода в Navrongo (Гана) (221 км)
Погода в San (Мали) (271 км)
Погода в Koutiala (Мали) (285 км)

Пояснения к столбцам:

Ветер - указаны скорость ветра в м/с - средняя за 10 мин, порывы в срок и между сроками (в фигурных скобках) и направление, откуда дует ветер: С - северный, СВ - северо-восточный, В - восточный, ЮВ - юго-восточный, Ю - южный, ЮЗ - юго-западный, З - западный, СЗ - северо-западный.
Видимость - горизонтальная дальность видимости в метрах или километрах. При видимости от 1 до 10 км при отсутствии осадков обычно наблюдается дымка, при ухудшении видимости до 1 км и менее - туман. В сухую погоду видимость может ухудшаться дымом, пылью или мглою.
Явления - указаны атмосферные явления, наблюдавшиеся в срок или в последний час перед сроком; фигурными скобками обозначены явления, наблюдавшиеся между сроками (за 1-3 часа до срока); квадратными скобками обозначены град или гололедные отложения с указанием их диаметра в мм.
Облачность - указаны через наклонную черту общая и нижняя облачность в баллах и высота нижней границы облаков в метрах; квадратными скобками обозначены формы облаков: Ci - перистые, Cs - перисто-слоистые, Cc - перисто-кучевые, Ac - высококучевые, As - высокослоистые, Sc - слоисто-кучевые, Ns - слоисто-дождевые, Cu - кучевые, Cb - кучево-дождевые. Подробнее классификацию облаков см. в Атласе облаков (PDF).
T - Температура воздуха - температура, измеренная на высоте 2 м над землей.
Td - Температура точки росы - температура, при понижении до которой содержащийся в воздухе водяной пар достигнет насыщения.
f - Относительная влажность воздуха - влажноcть воздуха, измеренная на высоте 2 м над землей.
Te - Эффективная температура - температура, которую ощущает одетый по сезону человек в тени. Характеристика душности погоды. При расчете учитывается влияние влажности воздуха и скорости ветра на теплоощущения человека.
Tes - Эффективная температура на солнце - температура, которую ощущает человек, с поправкой на солнечный нагрев. Характеристика знойности погоды. Зависит от высоты солнца над горизонтом, облачности и скорости ветра. Ночью, в пасмурную погоду, а также при ветре 12 м/с и более поправка равна нулю.
P - Атмосферное давление - приведенное к уровню моря атмосферное давление.
Po - Атмосферное давление - измеренное на уровне метеостанции атмосферное давление.
Tmin - Минимальная температура - минимум температуры воздуха на высоте 2 м над землей.
Tmax - Максимальная температура - максимум температуры воздуха на высоте 2 м над землей.
R - Количество осадков - Количество выпавших осадков за период времени, мм. При наведении курсора мыши на число - период времени, за который выпало указанное количество осадков.
R24 - Количество осадков - Количество выпавших осадков за 24 часа, мм.
S - Снежный покров - Высота снежного покрова, см. При наведении курсора мыши на число - состояние снежного покрова и степень покрытия местности в баллах.